Terminal Aerodrome Forecast
Issued by NWS

Home | Current Version | Previous Version | Text Only | Print | Product List | Glossary On
Versions: 1 2 3 4 5 6 7 8 9 10 11 12 13 14 15 16 17 18 19 20 21 22 23 24 25 26 27 28 29 30 31 32 33 34 35 36 37 38
000
FTAK31 PANC 012342
TAFAVD
TAF
PAVD 012342Z 0200/0224 VRB03KT P6SM BKN045
     FM020700 08004KT P6SM VCFG FEW008 SCT050 BKN120
     FM021000 VRB03KT 3SM BR BKN012
     FM021800 VRB03KT P6SM BKN035
     FM022100 25007KT P6SM BKN060 BKN150
      AMD LTD TO CLD VIS AND WIND=

USA.gov is the U.S. government's official web portal to all federal, state and local government web resources and services.